Theta_e
304 299 295 293 293 293 293 295 294 290 287 287 288 290 290 290 291 291 290 293 295 296 296 297 297 297 297 297 298 298 299 299 300 301 301 302 302 304
297 294 293 291 290 290 290 289 289 288 286 287 287 289 289 290 291 292 291 293 294 295 295 295 295 296 295 296 297 297 298 298 299 300 301 301 302 302
294 292 290 290 289 288 289 289 287 287 286 287 287 288 287 287 289 289 290 289 290 293 294 294 294 294 295 296 296 296 297 297 298 299 299 300 301 301
290 290 289 290 289 289 289 287 287 286 286 285 286 286 285 288 288 288 288 290 289 291 293 293 293 294 294 295 295 295 295 296 296 297 297 298 298 299
290 290 290 289 288 288 287 286 286 287 285 284 284 287 287 288 287 288 288 288 289 291 292 292 293 293 294 294 294 294 294 294 294 294 295 295 296 297
290 291 290 289 287 286 286 286 286 285 285 285 285 286 287 288 288 286 285 287 285 288 290 291 292 292 293 293 293 293 293 293 293 293 293 293 294 294
287 287 288 289 289 288 287 287 287 286 286 286 285 286 286 285 284 285 283 284 285 287 286 287 286 287 288 291 291 291 292 292 292 293 293 293 293 294
284 285 287 288 289 289 289 288 288 286 285 286 286 284 284 284 284 283 282 281 279 286 284 284 287 285 286 287 291 292 292 292 292 292 292 292 292 293
284 285 285 286 286 285 286 287 288 289 289 287 284 284 283 283 283 282 282 282 281 284 284 282 285 284 286 287 291 291 292 292 292 292 292 292 292 292
286 286 285 285 285 285 286 287 287 287 287 287 285 284 284 285 285 284 284 283 283 284 285 280 284 283 285 286 290 290 291 291 291 291 291 291 291 291
285 285 285 285 286 288 287 286 285 284 286 286 286 287 288 288 287 284 281 280 280 280 283 281 281 282 283 283 284 289 289 290 290 290 291 290 290 290
285 285 285 286 287 287 284 283 281 281 282 283 283 284 285 284 286 283 282 279 278 278 282 280 280 280 278 281 282 283 283 287 289 289 289 290 290 287
283 283 284 285 285 284 284 282 281 283 283 282 281 282 282 283 283 284 284 283 279 278 282 282 278 279 278 278 280 281 281 282 283 285 288 288 288 288
282 283 283 284 283 283 282 283 284 284 281 280 280 281 281 282 283 283 282 282 282 281 281 281 278 277 276 275 275 278 280 281 282 282 283 286 288 288
283 283 283 282 282 282 281 282 282 280 280 280 280 280 282 282 281 281 283 283 283 283 283 281 280 279 278 276 275 277 278 279 281 280 283 283 283 284
283 283 281 281 281 280 280 281 280 280 280 279 280 280 281 281 280 281 280 280 279 279 281 282 283 282 279 279 278 277 279 277 280 282 283 283 284 284
281 279 278 278 278 279 279 280 280 280 279 280 279 279 279 279 279 280 280 279 278 278 279 281 284 284 283 281 278 279 280 280 282 282 282 282 284 285
279 277 277 278 278 278 278 278 279 280 279 279 277 277 277 277 277 279 280 279 278 279 279 281 281 281 282 283 285 281 282 282 283 284 284 282 283 285
277 277 277 277 277 278 278 278 278 279 279 278 278 277 277 277 277 278 278 279 278 279 280 281 281 280 277 276 282 288 282 282 282 283 283 283 282 284
277 276 276 277 278 278 278 278 278 278 278 277 277 278 278 277 276 277 278 278 278 279 280 281 281 280 279 278 279 283 286 283 282 282 282 284 285 288
277 276 277 277 277 278 278 278 278 277 278 278 277 277 277 277 276 277 278 280 280 279 278 278 280 286 284 284 281 281 284 287 287 284 283 282 281 281
276 276 277 277 277 277 278 278 277 277 277 277 277 278 278 277 276 277 278 278 279 279 279 281 283 283 282 281 280 281 283 285 287 288 288 286 282 278
276 276 276 276 277 277 276 276 276 276 277 277 277 277 277 277 277 278 278 279 279 280 280 281 282 282 282 283 283 281 282 282 283 283 284 288 288 288
Wind_Speed
6 8 6 5 5 4 5 3 3 3 3 3 2 1 1 1 3 4 7 13 17 16 18 20 19 20 20 21 22 21 21 21 22 22 23 22 22 24
6 10 7 7 6 5 5 3 4 3 2 1 2 2 1 2 5 7 9 16 17 18 18 19 19 21 21 21 22 22 22 22 22 22 23 23 23 23
7 10 10 11 5 6 6 3 3 5 3 2 1 1 2 4 6 8 9 7 7 16 17 18 20 20 21 22 22 22 22 22 22 22 23 22 22 23
9 9 10 8 8 5 4 4 3 5 3 2 2 4 6 6 3 6 8 7 7 12 18 18 20 20 21 22 21 22 22 22 22 23 23 24 24 24
8 8 9 8 7 4 5 4 3 3 4 2 3 2 3 3 5 6 6 7 7 13 17 17 19 19 20 20 22 22 22 22 22 22 22 23 24 25
8 7 6 6 7 5 4 4 4 3 4 3 3 4 3 5 4 5 5 4 7 7 12 15 18 17 19 21 22 22 21 21 20 20 20 22 23 24
8 6 6 6 9 4 4 4 4 2 0 2 4 4 3 4 4 3 5 6 7 8 6 7 4 8 9 16 17 20 19 20 21 22 23 24 25 25
7 5 5 6 5 4 3 3 3 1 3 4 3 4 7 4 4 4 4 6 6 4 5 10 8 9 9 8 19 22 22 22 23 23 22 22 23 23
7 3 4 3 4 2 3 3 5 7 8 6 6 6 7 5 2 5 7 7 8 8 9 10 9 9 10 10 21 23 24 25 24 23 22 22 22 22
5 4 4 3 1 3 3 3 3 4 4 4 4 6 6 5 5 5 6 8 8 9 7 9 9 9 11 9 22 26 25 23 22 22 22 22 23 24
4 2 1 1 3 5 5 3 5 4 5 7 9 12 13 14 12 5 5 6 8 8 7 7 5 7 11 12 11 19 20 21 24 25 23 23 23 25
3 3 3 5 6 7 6 6 5 4 3 6 4 7 8 6 10 5 4 7 6 6 1 3 7 6 5 5 5 7 10 19 22 23 24 23 23 11
2 2 2 5 8 8 8 5 5 7 8 5 4 4 4 4 3 3 3 4 6 9 10 7 4 7 6 8 7 7 10 11 9 11 20 23 21 17
2 2 3 8 9 8 6 7 9 8 4 3 3 3 3 5 5 6 8 8 7 11 13 10 6 6 8 11 12 7 8 10 10 9 8 14 20 21
4 4 7 8 7 6 3 7 7 3 3 3 4 5 5 7 8 8 8 9 10 11 10 12 10 9 8 10 13 12 12 10 10 9 7 8 9 9
2 3 5 6 6 5 5 3 2 3 3 4 5 6 7 6 7 6 7 9 8 10 8 8 10 10 10 10 11 14 11 9 10 11 10 10 10 9
5 3 3 3 3 2 2 2 3 3 3 5 6 5 6 6 6 6 6 8 9 11 11 8 8 10 10 14 13 12 12 12 11 12 11 12 10 10
4 3 3 3 3 3 3 4 4 5 5 5 6 6 7 7 8 6 7 8 9 10 10 9 10 9 8 10 18 13 11 11 10 11 11 12 13 10
4 2 3 2 3 3 4 5 5 5 5 5 5 7 7 6 10 8 8 8 9 9 10 9 9 9 11 13 8 12 10 12 11 11 10 10 13 13
2 3 3 3 3 3 5 5 6 6 5 6 6 6 6 6 7 8 8 9 10 10 10 9 9 9 10 13 16 13 16 12 9 11 12 11 13 25
3 3 3 3 3 3 5 5 6 7 6 6 6 6 6 6 8 8 9 17 19 10 11 11 10 23 12 12 11 12 9 14 16 12 11 12 14 14
4 4 4 3 4 3 4 4 6 7 6 6 6 6 7 7 8 9 9 10 11 11 12 11 12 10 10 11 15 17 13 12 12 19 22 21 11 9
4 4 4 4 4 4 3 4 5 7 7 7 7 7 7 8 8 9 10 12 12 12 12 11 10 10 11 10 16 14 18 16 11 13 11 17 22 26
Wind_Direction
86 83 87 70 63 43 43 6 63 231 150 135 107 131 158 94 359 330 301 299 291 293 288 293 294 295 296 296 295 295 291 289 289 288 288 287 288 283
114 109 107 104 92 82 77 74 100 132 162 272 168 179 281 305 281 280 274 272 277 281 286 290 290 291 295 293 290 289 290 289 287 288 287 288 292 286
116 119 116 116 110 101 106 114 120 116 95 232 194 182 279 257 269 250 255 296 290 293 295 293 293 293 292 291 292 290 286 287 286 286 286 287 288 289
125 120 127 132 119 129 162 108 112 88 113 217 242 223 220 233 327 295 280 273 281 290 290 290 289 290 291 290 289 285 284 283 285 287 289 288 288 288
115 128 131 131 123 128 102 132 105 118 133 182 284 302 281 248 254 274 288 288 275 290 294 297 294 296 289 287 285 283 283 285 285 285 285 285 285 284
83 74 86 101 118 119 113 126 132 149 192 221 254 281 287 271 240 271 283 321 305 300 301 293 290 287 291 290 287 289 288 286 286 286 286 284 281 279
75 72 74 92 100 126 126 158 177 205 316 312 260 259 318 301 296 336 310 309 309 296 292 285 293 296 286 293 292 292 290 293 293 291 289 286 284 284
85 69 79 85 95 83 27 349 347 297 248 263 316 289 275 315 344 318 330 310 313 281 315 294 290 292 287 285 288 293 294 295 295 292 290 286 284 281
77 93 106 104 58 30 330 295 281 270 273 290 293 300 307 315 23 279 271 275 278 282 290 290 286 289 283 283 291 293 293 296 295 292 287 284 283 283
109 93 70 54 60 317 305 281 272 265 263 285 311 306 297 290 288 285 288 288 285 281 279 288 291 290 287 289 299 297 298 295 293 293 292 290 288 286
67 106 326 326 53 330 330 300 283 304 315 301 283 280 282 281 277 285 280 285 293 295 297 281 275 303 294 290 284 282 295 294 297 295 292 289 287 285
118 99 63 7 354 341 326 319 313 324 329 275 271 290 282 275 277 248 256 275 289 298 338 334 303 313 298 281 288 305 289 285 294 296 295 289 289 284
34 33 47 358 342 332 324 309 305 308 303 308 292 305 301 287 289 294 287 272 268 262 272 290 298 300 277 296 292 298 291 291 286 290 295 295 294 285
15 2 357 343 325 316 311 305 304 310 292 306 309 294 309 306 305 303 294 285 269 267 285 283 273 278 277 285 285 302 301 298 288 286 289 289 295 293
21 5 316 312 313 301 297 314 309 290 308 307 308 304 310 308 305 295 288 294 287 274 277 270 262 262 256 269 283 295 297 302 286 276 279 284 282 276
159 290 310 294 289 282 295 302 289 313 319 307 302 308 307 304 302 304 303 309 297 293 267 263 252 248 259 256 265 281 282 280 293 286 280 276 269 262
328 297 292 320 323 319 317 306 304 311 319 308 305 302 302 302 300 305 299 297 289 306 309 303 281 264 250 257 271 268 280 280 277 281 280 277 269 264
312 300 322 323 318 328 325 326 324 313 308 317 302 297 300 298 297 289 279 285 296 305 301 305 301 291 276 254 239 272 271 272 276 281 284 285 285 277
277 322 296 294 302 306 305 307 305 305 306 281 289 298 297 284 300 292 289 292 299 302 293 295 301 299 297 295 290 260 277 284 287 284 279 272 276 281
267 284 287 288 289 290 295 299 298 300 299 299 296 290 297 293 289 283 287 294 300 299 299 302 296 291 290 295 297 296 257 268 270 277 286 281 275 278
280 272 274 275 277 281 287 293 294 295 290 291 288 282 280 283 283 280 282 295 309 300 296 295 288 290 289 286 284 287 287 248 257 270 282 283 289 294
276 273 274 273 269 267 272 278 287 290 289 285 285 285 283 276 280 284 281 285 290 288 285 285 290 287 288 285 285 292 296 294 276 266 264 261 273 277
272 271 270 268 266 265 262 266 267 283 282 279 279 281 279 278 277 279 278 279 283 286 290 289 295 292 288 288 294 296 294 297 299 297 279 265 262 261